Hourly Data Report for July 02, 2021

BONAVISTA
NEWFOUNDLAND
Current Station Operator: ECCC - MSC

48°40'02.000" N
53°06'51.000" W
25.60 m
8400601
71178
AVA

Download Data

Hourly Data (July 2021)
Hourly Data Report for July 2, 2021
TIME
LST
Temp Definition
°C
Dew Point Definition
°C
Rel Hum Definition
%
Precip. Amount Definition
mm

Wind Dir Definition
10's deg

Wind Spd Definition
km/h
Visibility Definition
km
Stn Press Definition
kPa
Hmdx Definition


Wind Chill Definition


Weather Definition


00:30 7.1 6.4 95 0.2 5 28   101.18     LegendNANA
01:30 7.2 6.2 93 0.3 4 30   101.16     LegendNANA
02:30 7.5 6.1 91 0.0 5 27   101.19     LegendNANA
03:30 7.7 6.0 89 0.0 4 29   101.25     LegendNANA
04:30 7.6 5.2 85 0.0 4 30   101.25     LegendNANA
05:30 7.6 5.3 85 0.0 4 31   101.31     LegendNANA
06:30 7.8 5.1 83 0.0 4 27   101.35     LegendNANA
07:30 8.0 5.0 81 0.0 3 28   101.41     LegendNANA
08:30 8.0 5.2 83 0.0 5 25   101.48     LegendNANA
09:30 8.4 5.4 82 0.0 3 26   101.49     LegendNANA
10:30 8.4 5.4 82 0.0 3 26   101.51     LegendNANA
11:30 8.2 5.4 83 0.0 4 22   101.52     LegendNANA
12:30 8.2 5.3 82 0.0 4 21   101.52     LegendNANA
13:30 8.6 5.5 81 0.0 3 19   101.53     LegendNANA
14:30 8.6 5.5 81 0.0 4 19   101.50     LegendNANA
15:30 8.4 5.7 83 0.0 1 18   101.51     LegendNANA
16:30 7.9 5.0 82 0.0 2 13   101.50     LegendNANA
17:30 7.8 4.7 81 0.0 2 13   101.43     LegendNANA
18:30 7.5 4.4 80 0.0 2 9   101.42     LegendNANA
19:30 7.2 4.2 81 0.0 2 9   101.45     LegendNANA
20:30 6.9 4.2 83 0.0 6 8   101.48     LegendNANA
21:30 6.6 4.2 85 0.0 7 8   101.45     LegendNANA
22:30 6.4 4.2 86 0.0 11 6   101.46     LegendNANA
23:30 5.9 4.2 89 0.0 14 7   101.42     LegendNANA

Notes on Data Quality.

Legend

  • E = Estimated
  • M = Missing
  • NA = Not Available*
  • [empty] = Indicates an unobserved value
Date modified: